| time (UTC) | temp C | wind direction | speed KPH | gust KPH | rain 1hr cm | rain 24hr cm | rain mn cm | humidity % | barometer mb |
| 20260905002015 | 27 | 225 | 3.2 | 11.3 | 0.00 | 0.00 | 0.00 | 21 | 1013.3 |
| 20260905001515 | 27 | 236 | 3.2 | 11.3 | 0.00 | 0.00 | 0.00 | 20 | 1013.4 |
| 20260905001015 | 27 | 192 | 3.2 | 8.0 | 0.00 | 0.00 | 0.00 | 21 | 1013.3 |
| 20260905000515 | 28 | 218 | 3.2 | 9.7 | 0.00 | 0.00 | 0.00 | 20 | 1013.4 |
| 20260905000015 | 28 | 243 | 3.2 | 14.5 | 0.00 | 0.00 | 0.00 | 20 | 1013.3 |
| 20260904235515 | 28 | 211 | 1.6 | 11.3 | 0.00 | 0.00 | 0.00 | 19 | 1013.1 |
| 20260904235015 | 28 | 249 | 1.6 | 9.7 | 0.00 | 0.00 | 0.00 | 20 | 1013.3 |
| 20260904234515 | 28 | 252 | 3.2 | 9.7 | 0.00 | 0.00 | 0.00 | 19 | 1013.4 |
| 20260904234015 | 28 | 259 | 3.2 | 11.3 | 0.00 | 0.00 | 0.00 | 19 | 1013.3 |
| 20260904233515 | 28 | 281 | 3.2 | 14.5 | 0.00 | 0.00 | 0.00 | 19 | 1013.4 |
| 20260904233015 | 28 | 203 | 4.8 | 8.0 | 0.00 | 0.00 | 0.00 | 19 | 1013.2 |
| 20260904232515 | 28 | 211 | 4.8 | 16.1 | 0.00 | 0.00 | 0.00 | 19 | 1013.4 |
| 20260904232015 | 28 | 204 | 3.2 | 16.1 | 0.00 | 0.00 | 0.00 | 19 | 1013.4 |
| 20260904231515 | 28 | 206 | 3.2 | 12.9 | 0.00 | 0.00 | 0.00 | 18 | 1013.5 |
| 20260904231015 | 28 | 217 | 3.2 | 6.4 | 0.00 | 0.00 | 0.00 | 19 | 1013.4 |
| 20260904230515 | 28 | 217 | 4.8 | 8.0 | 0.00 | 0.00 | 0.00 | 18 | 1013.5 |
| 20260904230015 | 29 | 237 | 3.2 | 9.7 | 0.00 | 0.00 | 0.00 | 18 | 1013.6 |
| 20260904225515 | 29 | 221 | 3.2 | 6.4 | 0.00 | 0.00 | 0.00 | 18 | 1013.6 |
| 20260904225015 | 29 | 223 | 3.2 | 16.1 | 0.00 | 0.00 | 0.00 | 18 | 1013.7 |
| 20260904224515 | 29 | 281 | 4.8 | 16.1 | 0.00 | 0.00 | 0.00 | 18 | 1013.6 |
| 20260904224015 | 29 | 229 | 3.2 | 9.7 | 0.00 | 0.00 | 0.00 | 18 | 1013.5 |
| 20260904223515 | 28 | 238 | 3.2 | 8.0 | 0.00 | 0.00 | 0.00 | 18 | 1013.6 |
| 20260904223015 | 28 | 242 | 4.8 | 9.7 | 0.00 | 0.00 | 0.00 | 18 | 1013.6 |
| 20260904222515 | 28 | 191 | 3.2 | 14.5 | 0.00 | 0.00 | 0.00 | 18 | 1013.8 |
| 20260904222015 | 28 | 211 | 4.8 | 8.0 | 0.00 | 0.00 | 0.00 | 18 | 1013.7 |
| 20260904221515 | 28 | 217 | 4.8 | 12.9 | 0.00 | 0.00 | 0.00 | 17 | 1013.9 |
| 20260904221015 | 29 | 234 | 3.2 | 11.3 | 0.00 | 0.00 | 0.00 | 17 | 1014.0 |
| 20260904220515 | 29 | 250 | 3.2 | 8.0 | 0.00 | 0.00 | 0.00 | 18 | 1014.1 |
| 20260904220015 | 28 | 229 | 3.2 | 14.5 | 0.00 | 0.00 | 0.00 | 18 | 1014.0 |
| 20260904215515 | 29 | 200 | 3.2 | 11.3 | 0.00 | 0.00 | 0.00 | 17 | 1014.1 |
| 20260904215015 | 29 | 222 | 4.8 | 8.0 | 0.00 | 0.00 | 0.00 | 18 | 1014.2 |
| 20260904214515 | 28 | 221 | 4.8 | 12.9 | 0.00 | 0.00 | 0.00 | 17 | 1014.2 |
| 20260904214015 | 29 | 243 | 3.2 | 12.9 | 0.00 | 0.00 | 0.00 | 18 | 1014.2 |
| 20260904213515 | 28 | 213 | 3.2 | 9.7 | 0.00 | 0.00 | 0.00 | 18 | 1014.3 |
| 20260904213015 | 28 | 215 | 3.2 | 9.7 | 0.00 | 0.00 | 0.00 | 18 | 1014.3 |
| 20260904212515 | 28 | 204 | 3.2 | 14.5 | 0.00 | 0.00 | 0.00 | 17 | 1014.3 |
| 20260904212015 | 28 | 237 | 3.2 | 12.9 | 0.00 | 0.00 | 0.00 | 17 | 1014.4 |
| 20260904211515 | 28 | 220 | 3.2 | 12.9 | 0.00 | 0.00 | 0.00 | 17 | 1014.4 |
| 20260904211015 | 28 | 208 | 3.2 | 14.5 | 0.00 | 0.00 | 0.00 | 17 | 1014.5 |
| 20260904210515 | 28 | 264 | 3.2 | 8.0 | 0.00 | 0.00 | 0.00 | 18 | 1014.7 |
| 20260904210015 | 28 | 261 | 3.2 | 11.3 | 0.00 | 0.00 | 0.00 | 18 | 1014.7 |
| 20260904205515 | 28 | 272 | 3.2 | 20.9 | 0.00 | 0.00 | 0.00 | 18 | 1014.8 |
| 20260904205015 | 28 | 263 | 1.6 | 9.7 | 0.00 | 0.00 | 0.00 | 17 | 1014.8 |
| 20260904204515 | 28 | 270 | 1.6 | 6.4 | 0.00 | 0.00 | 0.00 | 17 | 1014.7 |
| 20260904204015 | 28 | 206 | 1.6 | 8.0 | 0.00 | 0.00 | 0.00 | 17 | 1014.8 |
| 20260904203515 | 28 | 277 | 3.2 | 12.9 | 0.00 | 0.00 | 0.00 | 18 | 1014.9 |
| 20260904203015 | 28 | 209 | 3.2 | 12.9 | 0.00 | 0.00 | 0.00 | 19 | 1014.8 |
| 20260904202515 | 28 | 256 | 3.2 | 12.9 | 0.00 | 0.00 | 0.00 | 18 | 1014.7 |
| 20260904202015 | 27 | 233 | 3.2 | 12.9 | 0.00 | 0.00 | 0.00 | 19 | 1015.0 |
| 20260904201515 | 27 | 236 | 3.2 | 14.5 | 0.00 | 0.00 | 0.00 | 18 | 1015.0 |
| 20260904201015 | 27 | 240 | 3.2 | 9.7 | 0.00 | 0.00 | 0.00 | 18 | 1015.1 |
| 20260904200515 | 27 | 249 | 3.2 | 14.5 | 0.00 | 0.00 | 0.00 | 18 | 1015.2 |
| 20260904200015 | 27 | 242 | 3.2 | 14.5 | 0.00 | 0.00 | 0.00 | 18 | 1015.3 |
| 20260904195515 | 27 | 257 | 3.2 | 19.3 | 0.00 | 0.00 | 0.00 | 17 | 1015.4 |
| 20260904195015 | 27 | 190 | 3.2 | 14.5 | 0.00 | 0.00 | 0.00 | 18 | 1015.4 |
| 20260904194515 | 27 | 191 | 4.8 | 11.3 | 0.00 | 0.00 | 0.00 | 20 | 1015.1 |
| 20260904194015 | 27 | 210 | 3.2 | 17.7 | 0.00 | 0.00 | 0.00 | 19 | 1015.4 |
| 20260904193515 | 27 | 225 | 3.2 | 17.7 | 0.00 | 0.00 | 0.00 | 20 | 1015.4 |
| 20260904193015 | 27 | 220 | 3.2 | 16.1 | 0.00 | 0.00 | 0.00 | 21 | 1015.3 |
| 20260904192515 | 27 | 233 | 3.2 | 20.9 | 0.00 | 0.00 | 0.00 | 20 | 1015.4 |
| 20260904192015 | 27 | 259 | 1.6 | 8.0 | 0.00 | 0.00 | 0.00 | 21 | 1015.4 |
| 20260904191515 | 27 | 266 | 3.2 | 6.4 | 0.00 | 0.00 | 0.00 | 20 | 1015.5 |
| 20260904191015 | 27 | 261 | 3.2 | 11.3 | 0.00 | 0.00 | 0.00 | 20 | 1015.5 |
| 20260904190515 | 27 | 211 | 3.2 | 9.7 | 0.00 | 0.00 | 0.00 | 20 | 1015.6 |
| 20260904190015 | 27 | 220 | 4.8 | 11.3 | 0.00 | 0.00 | 0.00 | 20 | 1015.7 |
| 20260904185515 | 26 | 211 | 4.8 | 12.9 | 0.00 | 0.00 | 0.00 | 20 | 1015.5 |
| 20260904185015 | 26 | 215 | 3.2 | 16.1 | 0.00 | 0.00 | 0.00 | 21 | 1015.8 |
| 20260904184515 | 26 | 248 | 3.2 | 14.5 | 0.00 | 0.00 | 0.00 | 21 | 1015.8 |
| 20260904184015 | 26 | 205 | 3.2 | 11.3 | 0.00 | 0.00 | 0.00 | 21 | 1015.9 |
| 20260904183515 | 26 | 230 | 3.2 | 11.3 | 0.00 | 0.00 | 0.00 | 21 | 1016.0 |
| 20260904183015 | 26 | 193 | 3.2 | 11.3 | 0.00 | 0.00 | 0.00 | 22 | 1016.2 |
| 20260904182515 | 26 | 274 | 4.8 | 11.3 | 0.00 | 0.00 | 0.00 | 22 | 1016.0 |
| 20260904182015 | 26 | 240 | 4.8 | 20.9 | 0.00 | 0.00 | 0.00 | 22 | 1016.2 |
| 20260904181515 | 26 | 219 | 3.2 | 9.7 | 0.00 | 0.00 | 0.00 | 22 | 1016.2 |
| 20260904181015 | 26 | 248 | 3.2 | 8.0 | 0.00 | 0.00 | 0.00 | 22 | 1016.3 |
| 20260904180515 | 26 | 217 | 4.8 | 12.9 | 0.00 | 0.00 | 0.00 | 22 | 1016.2 |
| 20260904180015 | 26 | 273 | 4.8 | 22.5 | 0.00 | 0.00 | 0.00 | 21 | 1016.3 |
| 20260904175515 | 26 | 240 | 3.2 | 14.5 | 0.00 | 0.00 | 0.00 | 23 | 1016.4 |
| 20260904175015 | 26 | 211 | 3.2 | 12.9 | 0.00 | 0.00 | 0.00 | 24 | 1016.5 |
| 20260904174515 | 25 | 260 | 3.2 | 16.1 | 0.00 | 0.00 | 0.00 | 26 | 1016.3 |
| 20260904174015 | 25 | 214 | 3.2 | 8.0 | 0.00 | 0.00 | 0.00 | 26 | 1016.3 |
| 20260904173515 | 25 | 225 | 4.8 | 17.7 | 0.00 | 0.00 | 0.00 | 27 | 1016.4 |
| 20260904173015 | 25 | 268 | 4.8 | 12.9 | 0.00 | 0.00 | 0.00 | 27 | 1016.5 |
| 20260904172515 | 25 | 221 | 4.8 | 17.7 | 0.00 | 0.00 | 0.00 | 27 | 1016.5 |
| 20260904172015 | 25 | 234 | 3.2 | 19.3 | 0.00 | 0.00 | 0.00 | 27 | 1016.4 |
| 20260904171515 | 25 | 240 | 4.8 | 16.1 | 0.00 | 0.00 | 0.00 | 27 | 1016.5 |
| 20260904171015 | 25 | 245 | 4.8 | 19.3 | 0.00 | 0.00 | 0.00 | 27 | 1016.5 |
| 20260904170515 | 25 | 221 | 4.8 | 16.1 | 0.00 | 0.00 | 0.00 | 28 | 1016.4 |
| 20260904170015 | 25 | 222 | 3.2 | 12.9 | 0.00 | 0.00 | 0.00 | 27 | 1016.7 |
| 20260904165515 | 24 | 227 | 3.2 | 8.0 | 0.00 | 0.00 | 0.00 | 27 | 1016.5 |
| 20260904165015 | 24 | 207 | 3.2 | 11.3 | 0.00 | 0.00 | 0.00 | 27 | 1016.5 |
| 20260904164515 | 24 | 206 | 1.6 | 11.3 | 0.00 | 0.00 | 0.00 | 27 | 1016.6 |
| 20260904164015 | 23 | 234 | 1.6 | 8.0 | 0.00 | 0.00 | 0.00 | 28 | 1016.6 |
| 20260904163515 | 23 | 238 | 1.6 | 9.7 | 0.00 | 0.00 | 0.00 | 28 | 1016.8 |
| 20260904163015 | 23 | 270 | 3.2 | 20.9 | 0.00 | 0.00 | 0.00 | 27 | 1016.7 |
| 20260904162515 | 23 | 244 | 1.6 | 4.8 | 0.00 | 0.00 | 0.00 | 27 | 1016.8 |
| 20260904162015 | 23 | 250 | 3.2 | 12.9 | 0.00 | 0.00 | 0.00 | 29 | 1016.7 |
| 20260904161515 | 23 | 251 | 3.2 | 9.7 | 0.00 | 0.00 | 0.00 | 30 | 1016.7 |
| 20260904161015 | 23 | 289 | 1.6 | 8.0 | 0.00 | 0.00 | 0.00 | 29 | 1016.7 |
| 20260904160515 | 23 | 272 | 1.6 | 14.5 | 0.00 | 0.00 | 0.00 | 29 | 1016.7 |
| 20260904160015 | 23 | 150 | 3.2 | 11.3 | 0.00 | 0.00 | 0.00 | 29 | 1016.7 |
| 20260904155515 | 23 | 217 | 1.6 | 9.7 | 0.00 | 0.00 | 0.00 | 27 | 1016.5 |
| 20260904155015 | 23 | 236 | 1.6 | 6.4 | 0.00 | 0.00 | 0.00 | 28 | 1016.5 |
| 20260904154515 | 23 | 236 | 1.6 | 8.0 | 0.00 | 0.00 | 0.00 | 27 | 1016.5 |
| 20260904154015 | 23 | 237 | 1.6 | 6.4 | 0.00 | 0.00 | 0.00 | 27 | 1016.6 |
| 20260904153515 | 22 | 238 | 0.0 | 8.0 | 0.00 | 0.00 | 0.00 | 27 | 1016.5 |
| 20260904153015 | 22 | 238 | 0.0 | 4.8 | 0.00 | 0.00 | 0.00 | 28 | 1016.6 |
| 20260904152515 | 22 | 238 | 0.0 | 9.7 | 0.00 | 0.00 | 0.00 | 27 | 1016.6 |
| 20260904152015 | 22 | 238 | 0.0 | 6.4 | 0.00 | 0.00 | 0.00 | 26 | 1016.6 |
| 20260904151515 | 22 | 238 | 0.0 | 8.0 | 0.00 | 0.00 | 0.00 | 27 | 1016.7 |
| 20260904151015 | 22 | 240 | 1.6 | 6.4 | 0.00 | 0.00 | 0.00 | 27 | 1016.6 |
| 20260904150515 | 22 | 231 | 1.6 | 8.0 | 0.00 | 0.00 | 0.00 | 27 | 1016.6 |
| 20260904150015 | 22 | 232 | 0.0 | 6.4 | 0.00 | 0.00 | 0.00 | 26 | 1016.6 |
| 20260904145515 | 21 | 233 | 0.0 | 4.8 | 0.00 | 0.00 | 0.00 | 26 | 1016.6 |
| 20260904145015 | 21 | 234 | 0.0 | 3.2 | 0.00 | 0.00 | 0.00 | 26 | 1016.5 |
| 20260904144515 | 21 | 233 | 0.0 | 4.8 | 0.00 | 0.00 | 0.00 | 25 | 1016.5 |
| 20260904144016 | 21 | 233 | 0.0 | 4.8 | 0.00 | 0.00 | 0.00 | 26 | 1016.5 |
| 20260904143515 | 21 | 233 | 0.0 | 4.8 | 0.00 | 0.00 | 0.00 | 26 | 1016.4 |
| 20260904143016 | 21 | 234 | 1.6 | 3.2 | 0.00 | 0.00 | 0.00 | 26 | 1016.4 |
| 20260904142516 | 20 | 234 | 1.6 | 9.7 | 0.00 | 0.00 | 0.00 | 26 | 1016.4 |
| 20260904142016 | 20 | 237 | 1.6 | 11.3 | 0.00 | 0.00 | 0.00 | 26 | 1016.5 |
| 20260904141516 | 20 | 236 | 0.0 | 6.4 | 0.00 | 0.00 | 0.00 | 25 | 1016.5 |
| 20260904141016 | 20 | 236 | 0.0 | 0.0 | 0.00 | 0.00 | 0.00 | 26 | 1016.5 |
| 20260904140516 | 20 | 236 | 0.0 | 4.8 | 0.00 | 0.00 | 0.00 | 26 | 1016.4 |
| 20260904140016 | 20 | 236 | 0.0 | 4.8 | 0.00 | 0.00 | 0.00 | 26 | 1016.4 |
| 20260904135516 | 20 | 236 | 0.0 | 4.8 | 0.00 | 0.00 | 0.00 | 26 | 1016.3 |
| 20260904135016 | 20 | 238 | 0.0 | 8.0 | 0.00 | 0.00 | 0.00 | 25 | 1016.3 |
| 20260904134516 | 19 | 234 | 0.0 | 3.2 | 0.00 | 0.00 | 0.00 | 25 | 1016.2 |
| 20260904134016 | 19 | 234 | 0.0 | 4.8 | 0.00 | 0.00 | 0.00 | 25 | 1016.2 |
| 20260904133516 | 19 | 236 | 0.0 | 1.6 | 0.00 | 0.00 | 0.00 | 25 | 1016.1 |
| 20260904133016 | 18 | 237 | 0.0 | 3.2 | 0.00 | 0.00 | 0.00 | 24 | 1016.0 |
| 20260904132516 | 18 | 237 | 1.6 | 9.7 | 0.00 | 0.00 | 0.00 | 24 | 1016.0 |
| 20260904132016 | 18 | 239 | 1.6 | 6.4 | 0.00 | 0.00 | 0.00 | 24 | 1015.9 |
| 20260904131516 | 18 | 240 | 1.6 | 9.7 | 0.00 | 0.00 | 0.00 | 23 | 1015.9 |
| 20260904131016 | 18 | 235 | 1.6 | 12.9 | 0.00 | 0.00 | 0.00 | 23 | 1015.8 |
| 20260904130516 | 18 | 257 | 1.6 | 9.7 | 0.00 | 0.00 | 0.00 | 23 | 1015.7 |
| 20260904130016 | 18 | 227 | 1.6 | 12.9 | 0.00 | 0.00 | 0.00 | 22 | 1015.7 |
| 20260904125516 | 18 | 209 | 1.6 | 6.4 | 0.00 | 0.00 | 0.00 | 21 | 1015.7 |
| 20260904125016 | 18 | 208 | 1.6 | 8.0 | 0.00 | 0.00 | 0.00 | 20 | 1015.6 |
| 20260904124516 | 18 | 211 | 1.6 | 8.0 | 0.00 | 0.00 | 0.00 | 20 | 1015.5 |
| 20260904124016 | 18 | 208 | 1.6 | 11.3 | 0.00 | 0.00 | 0.00 | 20 | 1015.4 |
| 20260904123516 | 18 | 209 | 1.6 | 8.0 | 0.00 | 0.00 | 0.00 | 20 | 1015.4 |
| 20260904123016 | 18 | 208 | 1.6 | 4.8 | 0.00 | 0.00 | 0.00 | 20 | 1015.2 |
| 20260904122516 | 18 | 208 | 1.6 | 9.7 | 0.00 | 0.00 | 0.00 | 19 | 1015.2 |
| 20260904122016 | 18 | 205 | 1.6 | 6.4 | 0.00 | 0.00 | 0.00 | 20 | 1015.1 |
| 20260904121516 | 18 | 203 | 0.0 | 4.8 | 0.00 | 0.00 | 0.00 | 20 | 1015.1 |
| 20260904121016 | 18 | 202 | 1.6 | 4.8 | 0.00 | 0.00 | 0.00 | 19 | 1015.1 |
| 20260904120516 | 18 | 202 | 1.6 | 6.4 | 0.00 | 0.00 | 0.00 | 19 | 1015.1 |
| 20260904120016 | 18 | 205 | 3.2 | 9.7 | 0.00 | 0.00 | 0.00 | 19 | 1014.9 |
| 20260904115516 | 18 | 202 | 1.6 | 9.7 | 0.00 | 0.00 | 0.00 | 19 | 1014.9 |
| 20260904115016 | 18 | 203 | 1.6 | 6.4 | 0.00 | 0.00 | 0.00 | 20 | 1014.8 |
| 20260904114516 | 18 | 205 | 1.6 | 6.4 | 0.00 | 0.00 | 0.00 | 19 | 1014.9 |
| 20260904114016 | 18 | 211 | 3.2 | 6.4 | 0.00 | 0.00 | 0.00 | 19 | 1014.8 |
| 20260904113516 | 19 | 212 | 1.6 | 6.4 | 0.00 | 0.00 | 0.00 | 18 | 1014.8 |
| 20260904113016 | 19 | 212 | 1.6 | 4.8 | 0.00 | 0.00 | 0.00 | 18 | 1014.8 |
| 20260904112516 | 19 | 213 | 1.6 | 8.0 | 0.00 | 0.00 | 0.00 | 18 | 1014.8 |
| 20260904112016 | 20 | 213 | 1.6 | 8.0 | 0.00 | 0.00 | 0.00 | 18 | 1014.8 |
| 20260904111516 | 20 | 213 | 1.6 | 6.4 | 0.00 | 0.00 | 0.00 | 18 | 1014.8 |
| 20260904111016 | 20 | 230 | 3.2 | 4.8 | 0.00 | 0.00 | 0.00 | 18 | 1014.8 |
| 20260904110516 | 20 | 239 | 3.2 | 11.3 | 0.00 | 0.00 | 0.00 | 18 | 1014.8 |
| 20260904110016 | 20 | 239 | 3.2 | 8.0 | 0.00 | 0.00 | 0.00 | 18 | 1014.7 |
| 20260904105516 | 20 | 242 | 1.6 | 9.7 | 0.00 | 0.00 | 0.00 | 17 | 1014.7 |
| 20260904105016 | 20 | 243 | 1.6 | 9.7 | 0.00 | 0.00 | 0.00 | 18 | 1014.5 |
| 20260904104516 | 20 | 238 | 1.6 | 9.7 | 0.00 | 0.00 | 0.00 | 17 | 1014.6 |
| 20260904104016 | 20 | 240 | 3.2 | 6.4 | 0.00 | 0.00 | 0.00 | 18 | 1014.5 |
| 20260904103516 | 20 | 241 | 3.2 | 12.9 | 0.00 | 0.00 | 0.00 | 17 | 1014.5 |
| 20260904103016 | 20 | 242 | 3.2 | 6.4 | 0.00 | 0.00 | 0.00 | 17 | 1014.6 |
| 20260904102516 | 20 | 249 | 1.6 | 11.3 | 0.00 | 0.00 | 0.00 | 17 | 1014.6 |
| 20260904102016 | 20 | 249 | 1.6 | 11.3 | 0.00 | 0.00 | 0.00 | 17 | 1014.6 |
| 20260904101516 | 20 | 252 | 1.6 | 4.8 | 0.00 | 0.00 | 0.00 | 18 | 1014.5 |
| 20260904101016 | 20 | 252 | 3.2 | 6.4 | 0.00 | 0.00 | 0.00 | 18 | 1014.5 |
| 20260904100516 | 20 | 252 | 1.6 | 8.0 | 0.00 | 0.00 | 0.00 | 17 | 1014.4 |
| 20260904100016 | 19 | 252 | 1.6 | 8.0 | 0.00 | 0.00 | 0.00 | 18 | 1014.4 |
| 20260904095516 | 19 | 253 | 1.6 | 6.4 | 0.00 | 0.00 | 0.00 | 18 | 1014.4 |
| 20260904095016 | 19 | 253 | 0.0 | 4.8 | 0.00 | 0.00 | 0.00 | 18 | 1014.4 |
| 20260904094516 | 19 | 254 | 0.0 | 1.6 | 0.00 | 0.00 | 0.00 | 18 | 1014.5 |
| 20260904094016 | 19 | 254 | 0.0 | 3.2 | 0.00 | 0.00 | 0.00 | 18 | 1014.5 |
| 20260904093516 | 19 | 253 | 0.0 | 4.8 | 0.00 | 0.00 | 0.00 | 18 | 1014.5 |
| 20260904093016 | 19 | 254 | 0.0 | 4.8 | 0.00 | 0.00 | 0.00 | 18 | 1014.6 |
| 20260904092516 | 19 | 254 | 0.0 | 0.0 | 0.00 | 0.00 | 0.00 | 18 | 1014.6 |
| 20260904092016 | 19 | 254 | 0.0 | 4.8 | 0.00 | 0.00 | 0.00 | 18 | 1014.6 |
| 20260904091516 | 19 | 254 | 0.0 | 3.2 | 0.00 | 0.00 | 0.00 | 18 | 1014.5 |
| 20260904091016 | 19 | 254 | 0.0 | 4.8 | 0.00 | 0.00 | 0.00 | 18 | 1014.5 |
| 20260904090516 | 18 | 254 | 0.0 | 3.2 | 0.00 | 0.00 | 0.00 | 18 | 1014.5 |
| 20260904090016 | 18 | 254 | 0.0 | 3.2 | 0.00 | 0.00 | 0.00 | 19 | 1014.5 |
| 20260904085516 | 18 | 254 | 0.0 | 0.0 | 0.00 | 0.00 | 0.00 | 19 | 1014.5 |
| 20260904085016 | 18 | 254 | 0.0 | 0.0 | 0.00 | 0.00 | 0.00 | 21 | 1014.4 |
| 20260904084516 | 18 | 254 | 0.0 | 0.0 | 0.00 | 0.00 | 0.00 | 20 | 1014.5 |
| 20260904084016 | 18 | 254 | 0.0 | 0.0 | 0.00 | 0.00 | 0.00 | 20 | 1014.4 |
| 20260904083516 | 19 | 254 | 0.0 | 0.0 | 0.00 | 0.00 | 0.00 | 21 | 1014.4 |
| 20260904083016 | 19 | 254 | 0.0 | 0.0 | 0.00 | 0.00 | 0.00 | 20 | 1014.4 |
| 20260904082516 | 19 | 254 | 0.0 | 0.0 | 0.00 | 0.00 | 0.00 | 20 | 1014.3 |
| 20260904082016 | 20 | 254 | 0.0 | 1.6 | 0.00 | 0.00 | 0.00 | 20 | 1014.2 |
| 20260904081516 | 20 | 254 | 0.0 | 4.8 | 0.00 | 0.00 | 0.00 | 20 | 1014.1 |
| 20260904081016 | 20 | 254 | 0.0 | 0.0 | 0.00 | 0.00 | 0.00 | 20 | 1014.1 |
| 20260904080516 | 20 | 254 | 0.0 | 4.8 | 0.00 | 0.00 | 0.00 | 19 | 1014.0 |
| 20260904080016 | 20 | 254 | 0.0 | 0.0 | 0.00 | 0.00 | 0.00 | 19 | 1014.0 |
| 20260904075516 | 20 | 254 | 0.0 | 0.0 | 0.00 | 0.00 | 0.00 | 18 | 1014.1 |
| 20260904075016 | 20 | 254 | 0.0 | 0.0 | 0.00 | 0.00 | 0.00 | 19 | 1014.2 |
| 20260904074516 | 20 | 254 | 0.0 | 0.0 | 0.00 | 0.00 | 0.00 | 19 | 1014.2 |
| 20260904074016 | 20 | 254 | 0.0 | 4.8 | 0.00 | 0.00 | 0.00 | 18 | 1014.1 |
| 20260904073516 | 20 | 254 | 0.0 | 0.0 | 0.00 | 0.00 | 0.00 | 18 | 1014.1 |
| 20260904073016 | 20 | 254 | 1.6 | 8.0 | 0.00 | 0.00 | 0.00 | 18 | 1014.0 |
| 20260904072516 | 20 | 254 | 1.6 | 4.8 | 0.00 | 0.00 | 0.00 | 18 | 1013.9 |
| 20260904072016 | 21 | 254 | 0.0 | 4.8 | 0.00 | 0.00 | 0.00 | 18 | 1013.8 |
| 20260904071516 | 21 | 254 | 0.0 | 4.8 | 0.00 | 0.00 | 0.00 | 18 | 1013.9 |
| 20260904071016 | 21 | 254 | 1.6 | 6.4 | 0.00 | 0.00 | 0.00 | 18 | 1013.8 |
| 20260904070517 | 21 | 257 | 1.6 | 11.3 | 0.00 | 0.00 | 0.00 | 18 | 1013.9 |
| 20260904070016 | 21 | 256 | 1.6 | 12.9 | 0.00 | 0.00 | 0.00 | 18 | 1013.9 |
| 20260904065516 | 21 | 259 | 0.0 | 6.4 | 0.00 | 0.00 | 0.00 | 18 | 1013.8 |
| 20260904065016 | 21 | 259 | 0.0 | 4.8 | 0.00 | 0.00 | 0.00 | 18 | 1013.9 |
| 20260904064516 | 21 | 259 | 1.6 | 8.0 | 0.00 | 0.00 | 0.00 | 18 | 1013.8 |
| 20260904064016 | 21 | 259 | 1.6 | 6.4 | 0.00 | 0.00 | 0.00 | 18 | 1013.7 |
| 20260904063516 | 21 | 259 | 1.6 | 8.0 | 0.00 | 0.00 | 0.00 | 18 | 1013.6 |
| 20260904063016 | 21 | 259 | 1.6 | 8.0 | 0.00 | 0.00 | 0.00 | 18 | 1013.6 |
| 20260904062516 | 21 | 260 | 1.6 | 8.0 | 0.00 | 0.00 | 0.00 | 18 | 1013.5 |
| 20260904062016 | 21 | 261 | 1.6 | 8.0 | 0.00 | 0.00 | 0.00 | 18 | 1013.5 |
| 20260904061516 | 22 | 264 | 1.6 | 6.4 | 0.00 | 0.00 | 0.00 | 18 | 1013.4 |
| 20260904061016 | 22 | 265 | 1.6 | 4.8 | 0.00 | 0.00 | 0.00 | 18 | 1013.4 |
| 20260904060516 | 22 | 265 | 1.6 | 9.7 | 0.00 | 0.00 | 0.00 | 18 | 1013.4 |
| 20260904060016 | 22 | 284 | 1.6 | 6.4 | 0.00 | 0.00 | 0.00 | 18 | 1013.4 |
| 20260904055516 | 22 | 284 | 1.6 | 8.0 | 0.00 | 0.00 | 0.00 | 17 | 1013.4 |
| 20260904055016 | 22 | 298 | 1.6 | 12.9 | 0.00 | 0.00 | 0.00 | 17 | 1013.3 |
| 20260904054516 | 22 | 257 | 1.6 | 11.3 | 0.00 | 0.00 | 0.00 | 17 | 1013.4 |
| 20260904054016 | 22 | 241 | 1.6 | 8.0 | 0.00 | 0.00 | 0.00 | 17 | 1013.3 |
| 20260904053516 | 23 | 272 | 3.2 | 11.3 | 0.00 | 0.00 | 0.00 | 17 | 1013.3 |
| 20260904053016 | 23 | 286 | 1.6 | 14.5 | 0.00 | 0.00 | 0.00 | 17 | 1013.2 |
| 20260904052516 | 23 | 250 | 1.6 | 9.7 | 0.00 | 0.00 | 0.00 | 17 | 1013.2 |
| 20260904052016 | 23 | 194 | 1.6 | 11.3 | 0.00 | 0.00 | 0.00 | 17 | 1013.2 |
| 20260904051516 | 23 | 224 | 3.2 | 11.3 | 0.00 | 0.00 | 0.00 | 17 | 1013.2 |
| 20260904051016 | 23 | 251 | 3.2 | 11.3 | 0.00 | 0.00 | 0.00 | 17 | 1013.1 |
| 20260904050517 | 23 | 220 | 3.2 | 8.0 | 0.00 | 0.00 | 0.00 | 17 | 1013.1 |
| 20260904050016 | 23 | 232 | 3.2 | 9.7 | 0.00 | 0.00 | 0.00 | 17 | 1013.1 |
| 20260904045516 | 23 | 221 | 3.2 | 12.9 | 0.00 | 0.00 | 0.00 | 17 | 1013.0 |
| 20260904045016 | 23 | 201 | 3.2 | 11.3 | 0.00 | 0.00 | 0.00 | 17 | 1013.1 |
| 20260904044516 | 23 | 196 | 3.2 | 12.9 | 0.00 | 0.00 | 0.00 | 17 | 1013.1 |
| 20260904044017 | 23 | 227 | 3.2 | 11.3 | 0.00 | 0.00 | 0.00 | 17 | 1013.1 |
| 20260904043516 | 23 | 223 | 3.2 | 11.3 | 0.00 | 0.00 | 0.00 | 17 | 1013.1 |
| 20260904043017 | 23 | 238 | 3.2 | 8.0 | 0.00 | 0.00 | 0.00 | 17 | 1013.1 |
| 20260904042516 | 23 | 241 | 1.6 | 17.7 | 0.00 | 0.00 | 0.00 | 17 | 1013.1 |
| 20260904042017 | 23 | 261 | 1.6 | 3.2 | 0.00 | 0.00 | 0.00 | 17 | 1013.1 |
| 20260904041517 | 23 | 261 | 0.0 | 6.4 | 0.00 | 0.00 | 0.00 | 17 | 1013.0 |
| 20260904041017 | 23 | 261 | 0.0 | 6.4 | 0.00 | 0.00 | 0.00 | 17 | 1013.1 |
| 20260904040517 | 23 | 261 | 0.0 | 8.0 | 0.00 | 0.00 | 0.00 | 17 | 1013.0 |
| 20260904040017 | 23 | 263 | 0.0 | 4.8 | 0.00 | 0.00 | 0.00 | 17 | 1013.0 |
| 20260904035517 | 23 | 263 | 0.0 | 4.8 | 0.00 | 0.00 | 0.00 | 17 | 1012.9 |
| 20260904035017 | 23 | 263 | 0.0 | 4.8 | 0.00 | 0.00 | 0.00 | 17 | 1012.7 |
| 20260904034517 | 23 | 263 | 0.0 | 8.0 | 0.00 | 0.00 | 0.00 | 17 | 1012.7 |
| 20260904034017 | 23 | 263 | 0.0 | 4.8 | 0.00 | 0.00 | 0.00 | 17 | 1012.6 |
| 20260904033517 | 23 | 263 | 0.0 | 6.4 | 0.00 | 0.00 | 0.00 | 17 | 1012.7 |
| 20260904033017 | 23 | 263 | 0.0 | 4.8 | 0.00 | 0.00 | 0.00 | 17 | 1012.7 |
| 20260904032517 | 23 | 263 | 0.0 | 0.0 | 0.00 | 0.00 | 0.00 | 17 | 1012.7 |
| 20260904032017 | 23 | 264 | 0.0 | 3.2 | 0.00 | 0.00 | 0.00 | 17 | 1012.7 |
| 20260904031517 | 23 | 263 | 0.0 | 1.6 | 0.00 | 0.00 | 0.00 | 18 | 1012.6 |
| 20260904031017 | 23 | 264 | 0.0 | 0.0 | 0.00 | 0.00 | 0.00 | 17 | 1012.6 |
| 20260904030517 | 23 | 264 | 0.0 | 0.0 | 0.00 | 0.00 | 0.00 | 16 | 1012.6 |
| 20260904030017 | 23 | 263 | 0.0 | 4.8 | 0.00 | 0.00 | 0.00 | 17 | 1012.5 |
| 20260904025517 | 23 | 264 | 0.0 | 6.4 | 0.00 | 0.00 | 0.00 | 16 | 1012.5 |
| 20260904025017 | 23 | 264 | 0.0 | 0.0 | 0.00 | 0.00 | 0.00 | 16 | 1012.5 |
| 20260904024517 | 24 | 264 | 0.0 | 0.0 | 0.00 | 0.00 | 0.00 | 17 | 1012.5 |
| 20260904024017 | 24 | 264 | 1.6 | 4.8 | 0.00 | 0.00 | 0.00 | 16 | 1012.5 |
| 20260904023517 | 24 | 265 | 1.6 | 4.8 | 0.00 | 0.00 | 0.00 | 16 | 1012.5 |
| 20260904023017 | 24 | 265 | 0.0 | 0.0 | 0.00 | 0.00 | 0.00 | 16 | 1012.5 |
| 20260904022517 | 24 | 264 | 0.0 | 3.2 | 0.00 | 0.00 | 0.00 | 16 | 1012.3 |
| 20260904022017 | 24 | 264 | 0.0 | 1.6 | 0.00 | 0.00 | 0.00 | 16 | 1012.4 |
| 20260904021517 | 25 | 264 | 0.0 | 3.2 | 0.00 | 0.00 | 0.00 | 16 | 1012.4 |
| 20260904021017 | 25 | 264 | 0.0 | 4.8 | 0.00 | 0.00 | 0.00 | 16 | 1012.4 |
| 20260904020517 | 25 | 265 | 1.6 | 3.2 | 0.00 | 0.00 | 0.00 | 16 | 1012.4 |
| 20260904020017 | 25 | 269 | 1.6 | 6.4 | 0.00 | 0.00 | 0.00 | 15 | 1012.4 |
| 20260904015517 | 25 | 268 | 1.6 | 9.7 | 0.00 | 0.00 | 0.00 | 15 | 1012.4 |
| 20260904015017 | 25 | 283 | 0.0 | 6.4 | 0.00 | 0.00 | 0.00 | 15 | 1012.4 |
| 20260904014517 | 25 | 287 | 1.6 | 8.0 | 0.00 | 0.00 | 0.00 | 15 | 1012.5 |
| 20260904014017 | 25 | 289 | 1.6 | 14.5 | 0.00 | 0.00 | 0.00 | 15 | 1012.5 |
| 20260904013517 | 25 | 246 | 0.0 | 6.4 | 0.00 | 0.00 | 0.00 | 15 | 1012.4 |
| 20260904013017 | 25 | 236 | 1.6 | 6.4 | 0.00 | 0.00 | 0.00 | 15 | 1012.5 |
| 20260904012517 | 25 | 228 | 1.6 | 12.9 | 0.00 | 0.00 | 0.00 | 15 | 1012.4 |
| 20260904012017 | 25 | 261 | 1.6 | 8.0 | 0.00 | 0.00 | 0.00 | 16 | 1012.5 |
| 20260904011517 | 26 | 253 | 1.6 | 11.3 | 0.00 | 0.00 | 0.00 | 15 | 1012.6 |
| 20260904011017 | 26 | 257 | 1.6 | 12.9 | 0.00 | 0.00 | 0.00 | 15 | 1012.5 |
| 20260904010517 | 26 | 256 | 1.6 | 8.0 | 0.00 | 0.00 | 0.00 | 15 | 1012.6 |
| 20260904010017 | 26 | 273 | 3.2 | 20.9 | 0.00 | 0.00 | 0.00 | 15 | 1012.7 |
| 20260904005517 | 26 | 211 | 1.6 | 11.3 | 0.00 | 0.00 | 0.00 | 15 | 1012.7 |
| 20260904005017 | 26 | 257 | 1.6 | 6.4 | 0.00 | 0.00 | 0.00 | 15 | 1012.8 |
| 20260904004517 | 26 | 261 | 1.6 | 6.4 | 0.00 | 0.00 | 0.00 | 15 | 1012.8 |
| 20260904004017 | 26 | 260 | 1.6 | 9.7 | 0.00 | 0.00 | 0.00 | 15 | 1012.8 |
| 20260904003517 | 26 | 258 | 1.6 | 12.9 | 0.00 | 0.00 | 0.00 | 15 | 1012.8 |
| 20260904003017 | 26 | 260 | 1.6 | 17.7 | 0.00 | 0.00 | 0.00 | 15 | 1012.7 |
| 20260904002517 | 26 | 278 | 1.6 | 12.9 | 0.00 | 0.00 | 0.00 | 15 | 1013.0 |